{"data":{"norad_id":66166,"intl_designator":"2025-240W","name":"STARLINK-35624","alt_names":[],"object_type":"PAYLOAD","status":"ACTIVE","operator":null,"country":"US","launch_date":"2025-10-25","launch_site_code":"AFWTR","launch_vehicle":null,"mission":null,"orbit_class":"UNKNOWN","rcs_meters":null,"size_class":null,"mass_kg":null,"dimensions":null,"purposes":["comms"],"wikipedia_slug":null,"has_3d_model":false,"image_url":null,"decayed_at":null,"tle_current":{"epoch":"2026-09-20T05:12:57.428640Z","epoch_age_seconds":124783,"freshness":"FRESH","line1":"1 66166U 25240W   26263.21733135  .00011127  00000+0  33992-3 0  9992","line2":"2 66166  53.1591 234.8332 0001466  93.4839 266.6331 15.34403887 51836","mean_motion":15.34403887,"eccentricity":0.0001466,"inclination_deg":53.1591,"raan_deg":234.8332,"arg_perigee_deg":93.4839,"mean_anomaly_deg":266.6331,"bstar":0.00033992,"rev_number":5183,"period_min":93.847520343254,"perigee_km":461.68882176279,"apogee_km":463.6945527339,"semimajor_km":6840.8286872483,"source":"CELESTRAK","updated_at":"2026-09-21T09:00:35.816388Z"}}}